TimeMDT,TemperatureF,Dew PointF,Humidity,Sea Level PressureIn,VisibilityMPH,Wind Direction,Wind SpeedMPH,Gust SpeedMPH,PrecipitationIn,Events,Conditions,WindDirDegrees,DateUTC
12:53 AM,59.0,48.9,69,30.37,10.0,South,8.1,-,N/A,,Clear,190,2013-09-04 06:53:00
1:53 AM,59.0,48.0,67,30.38,10.0,SSW,11.5,-,N/A,,Clear,210,2013-09-04 07:53:00
2:53 AM,57.9,46.9,67,30.38,10.0,SW,9.2,-,N/A,,Clear,230,2013-09-04 08:53:00
3:53 AM,57.9,46.0,65,30.04,10.0,SSW,12.7,-,N/A,,Clear,210,2013-09-04 09:53:00
4:53 AM,55.9,45.0,67,30.04,10.0,SSW,10.4,-,N/A,,Clear,200,2013-09-04 10:53:00
5:53 AM,55.9,44.1,64,30.06,10.0,SSW,6.9,-,N/A,,Clear,200,2013-09-04 11:53:00
6:53 AM,55.0,44.1,67,30.09,10.0,Calm,Calm,-,N/A,,Clear,0,2013-09-04 12:53:00
7:53 AM,62.1,48.0,60,30.09,10.0,Calm,Calm,-,N/A,,Clear,0,2013-09-04 13:53:00
8:53 AM,66.9,48.0,51,30.10,10.0,Calm,Calm,-,N/A,,Clear,0,2013-09-04 14:53:00
9:53 AM,72.0,46.9,41,30.10,10.0,SSW,6.9,-,N/A,,Clear,200,2013-09-04 15:53:00
10:53 AM,75.9,48.0,37,30.10,10.0,SSW,12.7,-,N/A,,Clear,200,2013-09-04 16:53:00
11:53 AM,78.1,46.0,32,30.07,10.0,South,11.5,-,N/A,,Clear,190,2013-09-04 17:53:00
12:53 PM,80.1,44.1,28,30.06,10.0,SW,10.4,17.3,N/A,,Clear,230,2013-09-04 18:53:00
1:53 PM,81.0,39.9,23,30.06,10.0,South,10.4,-,N/A,,Clear,180,2013-09-04 19:53:00
3:53 PM,82.0,39.0,22,30.03,10.0,Variable,5.8,19.6,N/A,,Clear,0,2013-09-04 21:53:00
4:53 PM,81.0,37.9,21,30.03,10.0,SSW,6.9,-,N/A,,Clear,200,2013-09-04 22:53:00
5:53 PM,79.0,39.0,24,30.04,10.0,SSE,11.5,-,N/A,,Clear,160,2013-09-04 23:53:00
6:53 PM,75.0,37.0,25,30.06,10.0,SSE,13.8,-,N/A,,Clear,160,2013-09-05 00:53:00
7:53 PM,70.0,39.0,32,30.07,10.0,SSE,11.5,-,N/A,,Clear,160,2013-09-05 01:53:00
8:53 PM,64.9,42.1,43,30.10,10.0,South,10.4,-,N/A,,Clear,170,2013-09-05 02:53:00
9:53 PM,63.0,42.1,46,30.10,10.0,South,6.9,-,N/A,,Clear,190,2013-09-05 03:53:00
10:53 PM,63.0,42.1,46,30.10,10.0,West,4.6,-,N/A,,Clear,270,2013-09-05 04:53:00
11:53 PM,62.1,41.0,46,30.10,10.0,West,5.8,-,N/A,,Clear,270,2013-09-05 05:53:00